Regional Weather Roundup
Issued by NWS

Home | Current Version | Previous Version | Graphics & Text | Print | Product List | Glossary On
Versions: 1 2 3 4 5 6 7 8 9 10 11 12 13 14 15 16 17 18 19 20 21 22 23 24 25 26 27 28 29 30 31 32 33 34 35 36 37 38 39 40 41 42 43 44 45 46 47 48 49 50
000
ASUS43 KDMX 012307
RWRIA

WEATHER ROUNDUP FOR IOWA
NATIONAL WEATHER SERVICE DES MOINES IA
600 PM CDT FRI AUG 01 2014

NOTE: "FAIR" INDICATES FEW OR NO CLOUDS BELOW 12,000 FEET WITH NO
SIGNIFICANT WEATHER AND/OR OBSTRUCTIONS TO VISIBILITY.

* - THESE STATIONS ARE NOT NWS STATIONS...THUS NOT UNDER NWS
QUALITY CONTROL.  THEY ALSO DO NOT REPORT WEATHER SUCH
AS PRECIPITATION OR FOG.

IAZ001>003-012>014-020>022-031>034-043>046-020000-
   NORTHWEST IOWA

CITY           SKY/WX    TMP DP  RH WIND       PRES   REMARKS
CARROLL *      SUNNY     79  59  50 CALM      30.08F HX  80
CHEROKEE *     SUNNY     81  57  44 CALM      30.08F HX  81
DENISON *      SUNNY     79  61  53 CALM      30.07S HX  80
LE MARS *      MOSUNNY   81  57  44 CALM      30.09S HX  81
ORANGE CITY *  MOSUNNY   82  54  36 S3        30.09F HX  81
SHELDON *      SUNNY     79  57  47 CALM      30.08F HX  80
SIOUX CITY     MOSUNNY   83  60  45 S3        30.07F HX  83
SPENCER        MOSUNNY   83  56  39 CALM      30.09S HX  82
STORM LAKE *   MOSUNNY   79  59  50 W6        30.10S HX  80
$$

IAZ055>058-069>071-079>083-090>094-020000-
   SOUTHWEST IOWA

CITY           SKY/WX    TMP DP  RH WIND       PRES   REMARKS
ATLANTIC *     SUNNY     81  61  50 N6        30.07S HX  81
AUDUBON *      SUNNY     82  64  54 CALM      30.09F HX  84
CLARINDA *     SUNNY     81  63  54 CALM      30.08S HX  82
COUNCIL BLFS * PTSUNNY   79  64  61 E6        30.07F HX  81
CRESTON *      SUNNY     81  63  54 SE3       30.08S HX  82
HARLAN  *      MOSUNNY   81  63  54 CALM      30.11F HX  82
LAMONI         LGT RAIN  76  66  71 NW5       30.08R
RED OAK *      MOSUNNY   81  64  57 S3        30.07S HX  82
SHENANDOAH *   PTSUNNY   82  63  51 E5        30.07F HX  83
$$

IAZ047>049-059>061-072>074-084-020000-
   CENTRAL IOWA

CITY           SKY/WX    TMP DP  RH WIND       PRES   REMARKS
AMES           MOSUNNY   81  59  47 SE5       30.07S HX  81
ANKENY *       SUNNY     81  57  44 E6        30.06S HX  81
CHARITON *     SUNNY     82  63  51 NE7       30.07S HX  83
DES MOINES     MOSUNNY   84  58  40 E5        30.06S HX  83
GRINNELL*      MOSUNNY   79  61  53 CALM      30.08S HX  80
KNOXVILLE *    SUNNY     81  59  47 NE5       30.06R HX  81
MARSHALLTOWN   MOSUNNY   82  60  47 NW3       30.06F HX  82
PELLA *        SUNNY     82  61  47 N3        30.08R HX  83
PERRY *          N/A     81  61  50 CALM      30.07F HX  81
$$

IAZ004>006-015-016-023>025-035-036-020000-
   NORTH CENTRAL IOWA

CITY           SKY/WX    TMP DP  RH WIND       PRES   REMARKS
ALGONA *       MOSUNNY   81  61  50 N5        30.09R HX  81
CLARION *      MOSUNNY   81  57  44 VRB3      30.08S HX  81
ESTHERVILLE    SUNNY     80  56  43 N6        30.09S HX  80
FORT DODGE *   SUNNY     81  61  50 CALM      30.09S HX  81
MASON CITY     PTSUNNY   81  60  48 CALM      30.08F HX  82
FOREST CITY *  PTSUNNY   79  61  53 NW3       30.08S HX  80
IOWA FALLS *     N/A     81  59  47 W5        30.09S HX  81
$$

IAZ007>011-017>019-026>030-037>042-050>054-066-020000-
   NORTHEAST IOWA

CITY           SKY/WX    TMP DP  RH WIND       PRES   REMARKS
CEDAR RAPIDS   LGT RAIN  76  65  68 SE6       30.05S
CHARLES CITY * SUNNY     79  59  50 CALM      30.07F HX  80
CLINTON *      SUNNY     81  63  54 N5        30.07F HX  82
DECORAH *      SUNNY     79  57  47 NW6       30.07R HX  80
DUBUQUE        SUNNY     80  59  48 NW5       30.06F HX  81
MONTICELLO *   MOSUNNY   82  61  47 N6        30.05S HX  83
OELWEIN *      SUNNY     79  63  57 NW5       30.07S HX  80
WATERLOO       MOSUNNY   82  58  43 NW6       30.05S HX  82
$$

IAZ064-065-067-068-078-020000-
   EAST CENTRAL IOWA

CITY           SKY/WX    TMP DP  RH WIND       PRES   REMARKS
DAVENPORT      MOSUNNY   81  61  50 NW3       30.05F HX  82
IOWA CITY      MOSUNNY   82  60  47 NW3       30.06S HX  82
MT. PLEASANT * MOSUNNY   81  57  44 CALM      30.05S HX  81
MUSCATINE *    SUNNY     82  63  51 N6        30.05S HX  83
QUAD CITIES    MOSUNNY   77  66  68 S5        30.04S
$$

IAZ062-063-075>077-085>089-095>099-020000-
   SOUTHEAST IOWA

CITY           SKY/WX    TMP DP  RH WIND       PRES   REMARKS
BURLINGTON     MOSUNNY   79  68  69 CALM      30.05R HX  81
FAIRFIELD *    SUNNY     81  63  54 NW5       30.06S HX  82
FORT MADISON * MOSUNNY   81  63  54 CALM      30.06S HX  82
KEOKUK *       PTSUNNY   79  64  61 CALM      30.05R HX  81
OSKALOOSA *      N/A     81  63  54 N5        30.07R HX  82
CENTERVILLE *  SUNNY     81  64  57 E3        30.08S HX  82
OTTUMWA        SUNNY     81  61  50 N6        30.05R HX  82
WASHINGTON *   SUNNY     81  63  54 N6        30.06R HX  82
$$

ABBREVIATIONS USED IN REMARKS
   TC - TEMPERATURES IN CELSIUS
  WCI - WIND CHILL INDEX
   HX - HEAT INDEX
  VSB - VISIBILITY
$$



USA.gov is the U.S. government's official web portal to all federal, state and local government web resources and services.